[[{"header":{"parameterUnit":"m.s-1","parameterCategory":2,"la1":30.2991,"la2":30.254,"lo1":-89.0895,"lo2":-89.0444,"dy":0.0017,"dx":0.0017,"nx":28,"ny":28,"refTime":"2025-05-28T21:00:00:Z","depth":"0","parameterNumber":2,"parameterNumberName":"U-component_of_CURRENTS"},"data":[0,0,0,0,0,0,0,0,0,0,0,0,0,0,0,0,0,0,0,0,0,0,0,0,0,0,0,0,0,0,0,0,0,0,0,0,0,0,0,0,0,0,0,0,0,0,0,0,0,0,0,0,0,0,0,0,0,0,-0.262,-0.262,0,-0.2672,-0.2672,-0.2672,-0.2644,-0.2643,-0.2642,-0.2641,-0.2619,-0.262,-0.262,0,0,0,0,0,0,0,0,0,0,0,0,0,-0.2495,-0.2497,-0.262,-0.262,-0.2621,-0.2671,-0.2672,-0.2672,-0.2645,-0.2643,-0.2642,-0.2641,-0.2619,-0.262,-0.262,0,0,0,0,0,0,0,0,0,0,0,0,0,-0.2545,-0.2498,-0.2619,-0.2616,-0.2616,-0.2671,-0.2672,-0.2672,-0.2645,-0.2643,-0.2642,-0.264,-0.2619,-0.262,-0.262,-0.2659,0,0,-0.2622,-0.2623,0,0,0,0,0,0,0,0,-0.2542,-0.2549,-0.2615,-0.2616,-0.2617,-0.2652,-0.262,-0.2665,-0.2645,-0.2631,-0.2641,-0.2639,-0.2627,-0.2627,-0.2637,-0.2658,-0.2657,-0.2623,-0.2623,-0.2623,-0.2623,0,0,0,0,0,0,0,-0.2539,-0.2547,-0.2637,-0.2617,-0.2618,-0.2611,-0.2616,-0.2629,-0.2634,-0.2632,-0.2631,-0.2642,-0.2626,-0.2636,-0.2636,-0.2656,-0.2623,-0.2623,-0.2624,-0.2624,-0.2692,-0.2693,0,0,0,0,0,0,-0.2541,-0.2544,-0.2635,-0.2639,-0.2578,-0.2615,-0.2621,-0.264,-0.2635,-0.2635,-0.2643,-0.2641,-0.2636,-0.2635,-0.2635,-0.2672,-0.2623,-0.2624,-0.2624,-0.2691,-0.2692,-0.2694,0,0,0,0,0,0,-0.2539,-0.2549,-0.2633,-0.2594,-0.2605,-0.262,-0.2642,-0.2642,-0.2646,-0.2646,-0.2642,-0.2646,-0.2635,-0.2634,-0.2648,-0.267,-0.2624,-0.2625,-0.2689,-0.2691,-0.2693,-0.275,0,0,0,0,0,0,-0.2535,-0.2548,-0.2557,-0.2595,-0.2607,-0.2669,-0.2644,-0.2645,-0.2658,-0.2654,-0.2647,-0.2644,-0.2633,-0.2647,-0.2648,-0.2671,-0.2625,-0.2687,-0.269,-0.2692,-0.2746,-0.2754,-0.276,0,0,0,0,0,-0.253,-0.2554,-0.2557,-0.2568,-0.2621,-0.2671,-0.2677,-0.2678,-0.266,-0.2672,-0.2665,-0.2644,-0.2664,-0.2649,-0.265,-0.2673,-0.2686,-0.2689,-0.2692,-0.2743,-0.2752,-0.276,0,0,0,0,0,0,-0.2501,-0.2555,-0.2559,-0.2596,-0.2632,-0.2667,-0.2678,-0.2682,-0.2689,-0.2678,-0.2664,-0.2662,-0.2683,-0.2674,-0.2657,-0.2701,-0.2671,-0.2675,-0.2709,-0.2718,-0.2724,-0.2717,-0.2626,0,0,0,0,0,-0.2503,-0.2532,-0.2582,-0.2608,-0.2628,-0.2652,-0.2669,-0.2678,-0.2694,-0.2694,-0.2691,-0.269,-0.2702,-0.2704,-0.2712,-0.2739,-0.2722,-0.2754,-0.2761,-0.2767,-0.2763,-0.2769,-0.2775,-0.2704,-0.2704,-0.2704,0,0,-0.2496,-0.253,-0.2544,-0.2603,-0.2626,-0.2669,-0.2657,-0.2691,-0.272,-0.2692,-0.2716,-0.2715,-0.2715,-0.2743,-0.2752,-0.2735,-0.2779,-0.2771,-0.2775,-0.2768,-0.2772,-0.2779,-0.2785,-0.2706,-0.2706,-0.2706,0,0,-0.2508,-0.2532,-0.2563,-0.2601,-0.265,-0.2675,-0.2686,-0.2728,-0.2735,-0.2769,-0.2756,-0.277,-0.2785,-0.2795,-0.28,-0.2852,-0.2817,-0.2851,-0.2879,-0.2886,-0.2891,-0.2896,-0.2885,-0.2888,-0.2853,-0.2853,-0.2853,0,-0.2495,-0.2545,-0.2578,-0.2624,-0.2653,-0.2679,-0.2721,-0.2748,-0.2785,-0.2797,-0.278,-0.2813,-0.2813,-0.2851,-0.2865,-0.2868,-0.2853,-0.2847,-0.2894,-0.2898,-0.2901,-0.2889,-0.2892,-0.2856,-0.2856,-0.2856,-0.2855,0,-0.2535,-0.2576,-0.2598,-0.2663,-0.2703,-0.2741,-0.2792,-0.2821,-0.2828,-0.285,-0.2883,-0.2888,-0.2901,-0.2912,-0.2902,-0.2936,-0.2911,-0.2902,-0.287,-0.2912,-0.2897,-0.2899,-0.2861,-0.286,-0.2859,-0.2858,0,0,-0.2497,-0.2605,-0.2609,-0.2644,-0.2724,-0.276,-0.2818,-0.2874,-0.2901,-0.2928,-0.2958,-0.2985,-0.2974,-0.2979,-0.2975,-0.2981,-0.2999,-0.2949,-0.2948,-0.2933,-0.2995,-0.2899,-0.2892,-0.2992,-0.2992,-0.2993,-0.2974,0,-0.251,-0.2593,-0.2648,-0.2717,-0.2761,-0.2815,-0.2866,-0.2919,-0.2951,-0.2987,-0.3,-0.3023,-0.3006,-0.3007,-0.3016,-0.3005,-0.3005,-0.3003,-0.296,-0.2959,-0.2864,-0.2892,-0.2745,-0.2708,-0.2975,-0.2975,-0.2975,0,-0.2521,-0.2579,-0.265,-0.2744,-0.2767,-0.2811,-0.2885,-0.2938,-0.3004,-0.3024,-0.3053,-0.306,-0.3084,-0.3055,-0.3056,-0.3051,-0.3023,-0.301,-0.3009,-0.2897,-0.2866,-0.2709,-0.2701,-0.2672,-0.2978,-0.2978,-0.2977,0,-0.2465,-0.2572,-0.2623,-0.2657,-0.2772,-0.2803,-0.2856,-0.2935,-0.2976,-0.3039,-0.3062,-0.3095,-0.3098,-0.3088,-0.3058,-0.3056,-0.3041,-0.304,-0.2929,-0.2922,-0.2776,-0.2754,-0.2726,-0.3031,-0.3031,-0.3031,-0.3031,0,-0.2452,-0.2489,-0.2596,-0.2625,-0.2672,-0.2768,-0.2817,-0.2878,-0.2961,-0.2999,-0.3061,-0.3084,-0.3102,-0.3098,-0.3071,-0.2996,-0.3051,-0.293,-0.2911,-0.2792,-0.2772,-0.2723,-0.2752,-0.3031,-0.3031,-0.3031,-0.3031,0,-0.2377,-0.2455,-0.251,-0.2619,-0.2647,-0.2673,-0.2777,-0.2818,-0.2908,-0.2961,-0.2979,-0.3068,-0.3059,-0.3061,-0.3042,-0.2992,-0.2888,-0.2904,-0.2752,-0.2715,-0.2572,-0.261,-0.2572,-0.25,-0.2782,-0.2779,-0.2777,0,-0.2345,-0.2368,-0.2466,-0.2487,-0.253,-0.2589,-0.2631,-0.2756,-0.2806,-0.2937,-0.2952,-0.2992,-0.2979,-0.293,-0.2852,-0.2777,-0.2787,-0.2607,-0.2579,-0.2537,-0.2568,-0.2608,-0.2554,-0.2415,-0.241,-0.2406,-0.2403,0,-0.2263,-0.2294,-0.2335,-0.2378,-0.242,-0.2469,-0.2543,-0.2579,-0.2723,-0.2773,-0.2829,-0.2837,-0.2809,-0.2675,-0.2593,-0.2533,-0.2532,-0.2521,-0.2521,-0.2308,-0.2308,-0.2236,-0.246,-0.2367,-0.2371,-0.2373,-0.2375,-0.2377,-0.2169,-0.2168,-0.2214,-0.224,-0.2287,-0.2313,-0.2304,-0.2402,-0.2446,-0.2493,-0.2615,-0.2582,-0.2529,-0.2385,-0.2323,-0.2165,-0.2269,-0.2098,-0.2157,-0.221,-0.2107,-0.2242,-0.2103,-0.2105,-0.2106,-0.2108,-0.2109,0,-0.2042,-0.2056,-0.2075,-0.2098,-0.2082,-0.2158,-0.2211,-0.2178,-0.2166,-0.2257,-0.2265,-0.2239,-0.2095,-0.2067,-0.193,-0.1834,-0.18,-0.1806,-0.1834,-0.1802,-0.1936,-0.1882,-0.1635,-0.1635,-0.1635,-0.1635,-0.1635,-0.1635,-0.1974,-0.194,-0.1953,-0.1874,-0.1884,-0.181,-0.1801,-0.178,-0.1805,-0.1781,-0.1811,-0.1882,-0.1886,-0.1962,-0.1801,-0.17,-0.1679,-0.1619,-0.1687,-0.1791,-0.1824,-0.1855,-0.1809,-0.1551,-0.1551,-0.1455,-0.1455,-0.1454]},{"header":{"parameterUnit":"m.s-1","parameterCategory":2,"la1":30.2991,"la2":30.254,"lo1":-89.0895,"lo2":-89.0444,"dy":0.0017,"dx":0.0017,"nx":28,"ny":28,"refTime":"2025-05-28T21:00:00:Z","depth":"0","parameterNumber":3,"parameterNumberName":"V-component_of_CURRENTS"},"data":[0,0,0,0,0,0,0,0,0,0,0,0,0,0,0,0,0,0,0,0,0,0,0,0,0,0,0,0,0,0,0,0,0,0,0,0,0,0,0,0,0,0,0,0,0,0,0,0,0,0,0,0,0,0,0,0,0,0,-0.0174,-0.0173,0,-0.008,-0.0079,-0.0078,-0.0013,-0.0013,-0.0012,-0.0012,0.0111,0.0114,0.0117,0,0,0,0,0,0,0,0,0,0,0,0,0,-0.0241,-0.024,-0.0174,-0.0173,-0.0172,-0.0081,-0.0079,-0.0078,-0.0013,-0.0013,-0.0012,-0.0012,0.011,0.0114,0.0117,0,0,0,0,0,0,0,0,0,0,0,0,0,-0.0185,-0.024,-0.0175,-0.013,-0.0125,-0.0081,-0.0079,-0.0077,-0.0013,-0.0013,-0.0012,-0.0011,0.0109,0.0113,0.0118,0.0134,0,0,0.0131,0.0133,0,0,0,0,0,0,0,0,-0.0188,-0.0182,-0.0138,-0.0133,-0.0128,-0.0059,-0.0057,-0.0006,-0.0013,-0.0054,-0.0012,-0.0011,0.0056,0.0065,0.0083,0.014,0.0145,0.0132,0.0134,0.0136,0.0138,0,0,0,0,0,0,0,-0.0192,-0.0186,-0.0136,-0.0137,-0.013,-0.0095,-0.0087,-0.0047,-0.0002,-0.0051,-0.0046,-0.0038,0.0059,0.0078,0.0086,0.0147,0.0132,0.0136,0.0138,0.014,0.0236,0.0236,0,0,0,0,0,0,-0.021,-0.019,-0.0139,-0.0133,-0.0159,-0.0095,-0.0086,-0.008,-0.0003,0.0009,-0.0038,-0.0035,0.007,0.0081,0.0091,0.0111,0.0136,0.014,0.0143,0.0236,0.0236,0.0236,0,0,0,0,0,0,-0.0212,-0.0207,-0.0143,-0.016,-0.015,-0.0095,-0.0089,-0.0079,-0.006,0.0006,0.0019,-0.003,0.0071,0.0084,0.0123,0.0117,0.0142,0.0146,0.0236,0.0236,0.0236,0.0155,0,0,0,0,0,0,-0.0214,-0.0208,-0.0213,-0.0162,-0.0149,-0.0127,-0.009,-0.0078,-0.0056,-0.0051,0.0017,0.0029,0.0073,0.0116,0.0127,0.0123,0.015,0.0236,0.0236,0.0236,0.0157,0.0152,0.0147,0,0,0,0,0,-0.0217,-0.0231,-0.0214,-0.0208,-0.0158,-0.0128,-0.0119,-0.0076,-0.0057,-0.0055,-0.0006,0.0027,0.0123,0.0119,0.0133,0.013,0.0236,0.0236,0.0236,0.016,0.0153,0.0147,0,0,0,0,0,0,-0.0264,-0.0224,-0.0205,-0.0206,-0.0173,-0.0118,-0.0114,-0.0083,-0.0043,-0.0038,0.0026,0.0042,0.0073,0.0113,0.0107,0.0158,0.0185,0.0187,0.0123,0.0117,0.0112,0.0095,0.0153,0,0,0,0,0,-0.0277,-0.0276,-0.0231,-0.0232,-0.022,-0.0168,-0.0151,-0.0122,-0.0079,-0.0061,-0.0012,0.0039,0.0083,0.0107,0.015,0.0177,0.0223,0.0184,0.0179,0.0174,0.017,0.023,0.0229,0.0235,0.0235,0.0235,0,0,-0.0295,-0.0274,-0.0273,-0.0242,-0.0213,-0.0207,-0.0156,-0.0138,-0.0129,-0.0054,-0.003,0.0021,0.0085,0.0115,0.0133,0.0148,0.0198,0.0174,0.0169,0.0168,0.0229,0.0229,0.0228,0.0235,0.0235,0.0235,0,0,-0.0337,-0.0313,-0.0329,-0.0308,-0.0274,-0.024,-0.024,-0.0188,-0.0161,-0.0131,-0.0074,-0.0028,0.0035,0.0082,0.0113,0.0105,0.0166,0.0118,0.008,0.0138,0.0138,0.0138,0.0197,0.0203,0.0117,0.0117,0.0117,0,-0.0363,-0.0373,-0.0329,-0.0338,-0.033,-0.0262,-0.0277,-0.0239,-0.0181,-0.0159,-0.0136,-0.0033,0.0019,0.0066,0.0064,0.0093,0.0136,0.0096,0.013,0.0131,0.0133,0.0194,0.0202,0.0113,0.0114,0.0114,0.0114,0,-0.0414,-0.0422,-0.043,-0.0419,-0.0403,-0.0404,-0.0351,-0.0326,-0.0283,-0.0238,-0.0184,-0.0106,-0.0043,-0.0019,0.0021,0.006,0.009,0.0113,0.0141,0.0127,0.0192,0.0202,0.0107,0.0109,0.011,0.0111,0,0,-0.0471,-0.047,-0.0472,-0.0486,-0.0448,-0.0443,-0.0424,-0.0386,-0.037,-0.0301,-0.0273,-0.019,-0.0136,-0.0096,-0.0033,0.0019,0.0072,0.0064,0.0069,0.0114,0.0202,0.0251,0.0267,0.0099,0.01,0.0101,0.0242,0,-0.0526,-0.0575,-0.0549,-0.0585,-0.0605,-0.0542,-0.0532,-0.0484,-0.0423,-0.0376,-0.028,-0.0228,-0.0167,-0.0135,-0.0074,0.0037,0.0094,0.0032,0.0216,0.0222,0.026,0.0279,0.0328,0.046,0.0252,0.0254,0.0255,0,-0.0586,-0.0612,-0.0665,-0.0675,-0.0676,-0.0679,-0.0644,-0.0624,-0.0531,-0.0483,-0.0403,-0.0318,-0.0222,-0.0174,0.0007,-0.0035,0.0072,0.0159,0.0167,0.0247,0.0289,0.0442,0.0486,0.067,0.0271,0.0269,0.0268,0,-0.0659,-0.0691,-0.074,-0.0744,-0.0739,-0.0743,-0.0729,-0.0658,-0.064,-0.0543,-0.0509,-0.038,-0.0309,-0.0164,0.0028,0.0017,0.023,0.0241,0.0388,0.0393,0.049,0.0501,0.0728,0.0363,0.0362,0.0362,0.0361,0,-0.0732,-0.0769,-0.078,-0.0809,-0.0857,-0.082,-0.0837,-0.0795,-0.0731,-0.0708,-0.057,-0.0508,-0.0304,-0.0149,0.0013,0.0242,0.0227,0.039,0.0436,0.0464,0.047,0.0679,0.0744,0.0367,0.0366,0.0365,0.0364,0,-0.0804,-0.0812,-0.0871,-0.0889,-0.0896,-0.0928,-0.0923,-0.0926,-0.0849,-0.0811,-0.0783,-0.0599,-0.0386,-0.0166,0.0087,0.0227,0.056,0.0517,0.0538,0.0583,0.087,0.0927,0.1185,0.1299,0.0694,0.0697,0.0698,0,-0.0847,-0.0887,-0.094,-0.0981,-0.0992,-0.1027,-0.1047,-0.0995,-0.0989,-0.0857,-0.0842,-0.0628,-0.0453,-0.0051,0.0236,0.0541,0.0677,0.0749,0.0735,0.0907,0.1004,0.104,0.1119,0.0838,0.0841,0.0843,0.0845,0,-0.0925,-0.0939,-0.0986,-0.1075,-0.1117,-0.1161,-0.1179,-0.1193,-0.1117,-0.1045,-0.0902,-0.0743,-0.0337,0.0045,0.0439,0.0624,0.0894,0.0803,0.0989,0.1144,0.1193,0.1317,0.0722,0.0865,0.0863,0.0862,0.0861,0.086,-0.097,-0.1023,-0.1084,-0.1162,-0.1219,-0.1272,-0.1297,-0.1283,-0.1248,-0.1112,-0.0955,-0.0664,-0.0113,0.0465,0.0674,0.1132,0.1082,0.1268,0.1325,0.1349,0.1454,0.0899,0.1082,0.1081,0.108,0.108,0.1079,0,-0.1023,-0.1081,-0.1168,-0.1253,-0.1323,-0.1328,-0.1365,-0.1345,-0.1288,-0.1107,-0.0915,-0.0282,0.0259,0.0758,0.1392,0.1641,0.1696,0.1767,0.1845,0.1903,0.1434,0.1436,0.1695,0.1695,0.1695,0.1695,0.1695,0.1694,-0.1053,-0.1143,-0.1188,-0.1312,-0.137,-0.142,-0.1432,-0.1368,-0.1237,-0.0888,-0.0525,-0.0229,0.0509,0.1496,0.2077,0.2133,0.2351,0.2331,0.2443,0.2127,0.2085,0.2045,0.2065,0.2452,0.2453,0.2908,0.2912,0.2915]}],[{"header":{"parameterUnit":"m.s-1","parameterCategory":2,"la1":30.2991,"la2":30.254,"lo1":-89.0895,"lo2":-89.0444,"dy":0.0017,"dx":0.0017,"nx":28,"ny":28,"refTime":"2025-05-28T21:00:00:Z","depth":"2","parameterNumber":2,"parameterNumberName":"U-component_of_CURRENTS"},"data":[0,0,0,0,0,0,0,0,0,0,0,0,0,0,0,0,0,0,0,0,0,0,0,0,0,0,0,0,0,0,0,0,0,0,0,0,0,0,0,0,0,0,0,0,0,0,0,0,0,0,0,0,0,0,0,0,0,0,-0.2353,-0.2353,0,-0.2404,-0.2404,-0.2405,-0.2387,-0.2386,-0.2385,-0.2384,-0.2379,-0.2379,-0.238,0,0,0,0,0,0,0,0,0,0,0,0,0,-0.2242,-0.2244,-0.2353,-0.2354,-0.2354,-0.2404,-0.2404,-0.2405,-0.2387,-0.2386,-0.2385,-0.2384,-0.2379,-0.2379,-0.238,0,0,0,0,0,0,0,0,0,0,0,0,0,-0.2289,-0.2245,-0.2353,-0.2353,-0.2354,-0.2404,-0.2404,-0.2405,-0.2387,-0.2386,-0.2384,-0.2383,-0.2378,-0.2379,-0.238,-0.2414,0,0,-0.2384,-0.2384,0,0,0,0,0,0,0,0,-0.2287,-0.2293,-0.2352,-0.2353,-0.2354,-0.239,-0.2364,-0.2406,-0.2387,-0.2372,-0.2384,-0.2382,-0.238,-0.2381,-0.2391,-0.2414,-0.2413,-0.2384,-0.2384,-0.2385,-0.2385,0,0,0,0,0,0,0,-0.2283,-0.2291,-0.237,-0.2353,-0.2355,-0.2352,-0.2357,-0.2372,-0.238,-0.2373,-0.2373,-0.2383,-0.2379,-0.239,-0.239,-0.2413,-0.2384,-0.2385,-0.2385,-0.2386,-0.2463,-0.2464,0,0,0,0,0,0,-0.2284,-0.2288,-0.2369,-0.2372,-0.2319,-0.2356,-0.2361,-0.2378,-0.2381,-0.2381,-0.2384,-0.2382,-0.2388,-0.2389,-0.239,-0.2433,-0.2385,-0.2386,-0.2386,-0.2461,-0.2463,-0.2465,0,0,0,0,0,0,-0.2282,-0.2291,-0.2367,-0.2332,-0.2342,-0.2359,-0.2378,-0.2379,-0.2387,-0.239,-0.2388,-0.239,-0.2387,-0.2388,-0.2408,-0.2432,-0.2386,-0.2387,-0.246,-0.2462,-0.2464,-0.2518,0,0,0,0,0,0,-0.2278,-0.229,-0.2298,-0.2333,-0.2344,-0.2401,-0.238,-0.2382,-0.2397,-0.2395,-0.2395,-0.2393,-0.2386,-0.2407,-0.2409,-0.2433,-0.2388,-0.2458,-0.2461,-0.2463,-0.2514,-0.2521,-0.2527,0,0,0,0,0,-0.2274,-0.2295,-0.2299,-0.2308,-0.2357,-0.2403,-0.2408,-0.2413,-0.2399,-0.2412,-0.2411,-0.2393,-0.2425,-0.2409,-0.2412,-0.2436,-0.2457,-0.246,-0.2463,-0.2511,-0.252,-0.2527,0,0,0,0,0,0,-0.225,-0.2297,-0.2301,-0.2334,-0.2367,-0.24,-0.2412,-0.2418,-0.243,-0.2423,-0.2414,-0.2414,-0.2441,-0.2435,-0.2417,-0.2467,-0.2437,-0.2441,-0.2473,-0.2481,-0.2488,-0.2482,-0.2389,0,0,0,0,0,-0.2251,-0.2276,-0.2321,-0.2345,-0.2363,-0.2388,-0.2404,-0.2415,-0.2433,-0.2436,-0.2439,-0.2444,-0.246,-0.2465,-0.2477,-0.2506,-0.249,-0.2523,-0.253,-0.2536,-0.2533,-0.254,-0.2547,-0.2475,-0.2475,-0.2475,0,0,-0.2246,-0.2276,-0.2289,-0.2341,-0.2363,-0.2403,-0.2393,-0.2427,-0.2457,-0.2435,-0.2466,-0.2469,-0.2473,-0.2506,-0.2517,-0.2501,-0.2549,-0.254,-0.2545,-0.2539,-0.2544,-0.2551,-0.2557,-0.2477,-0.2477,-0.2477,0,0,-0.2257,-0.2279,-0.2306,-0.2341,-0.2387,-0.2411,-0.2423,-0.2464,-0.2475,-0.2514,-0.2504,-0.2524,-0.2546,-0.2558,-0.2565,-0.2618,-0.2585,-0.262,-0.2648,-0.2656,-0.2661,-0.2666,-0.2653,-0.2656,-0.2622,-0.2622,-0.2622,0,-0.2247,-0.2291,-0.232,-0.2362,-0.2391,-0.2417,-0.2456,-0.2485,-0.2525,-0.254,-0.2527,-0.257,-0.2573,-0.2614,-0.263,-0.2634,-0.262,-0.2616,-0.2663,-0.2667,-0.2671,-0.2657,-0.266,-0.2625,-0.2624,-0.2624,-0.2624,0,-0.2282,-0.232,-0.234,-0.24,-0.2438,-0.2476,-0.2526,-0.2557,-0.257,-0.2594,-0.2633,-0.2643,-0.2662,-0.2674,-0.2667,-0.2704,-0.2679,-0.2671,-0.2639,-0.2682,-0.2664,-0.2666,-0.2629,-0.2628,-0.2627,-0.2626,0,0,-0.2247,-0.2345,-0.235,-0.2384,-0.2461,-0.2494,-0.2554,-0.2611,-0.264,-0.2673,-0.2706,-0.2741,-0.2734,-0.2741,-0.2739,-0.2747,-0.2766,-0.2719,-0.2718,-0.27,-0.2763,-0.2667,-0.266,-0.2761,-0.2762,-0.2763,-0.2739,0,-0.226,-0.2336,-0.2387,-0.2454,-0.2495,-0.2549,-0.2602,-0.2656,-0.2691,-0.2731,-0.2749,-0.2777,-0.2764,-0.2769,-0.278,-0.2773,-0.2773,-0.2772,-0.273,-0.2728,-0.2633,-0.266,-0.2445,-0.2399,-0.2741,-0.2741,-0.2741,0,-0.2269,-0.2322,-0.2391,-0.2481,-0.2503,-0.2548,-0.2625,-0.2678,-0.2746,-0.277,-0.2803,-0.2814,-0.2842,-0.2817,-0.2823,-0.2819,-0.2792,-0.2779,-0.2778,-0.2668,-0.2636,-0.2413,-0.2389,-0.2744,-0.2743,-0.2743,-0.2743,0,-0.2216,-0.2318,-0.2368,-0.2402,-0.2512,-0.2546,-0.2598,-0.2678,-0.2719,-0.2786,-0.281,-0.2849,-0.2855,-0.285,-0.2823,-0.2824,-0.281,-0.281,-0.2698,-0.269,-0.2488,-0.2461,-0.2802,-0.2802,-0.2802,-0.2802,-0.2802,0,-0.2205,-0.2243,-0.2345,-0.2374,-0.2423,-0.2514,-0.2566,-0.2627,-0.2709,-0.2747,-0.2812,-0.2834,-0.2861,-0.2858,-0.2834,-0.2762,-0.2818,-0.2699,-0.2679,-0.2501,-0.2476,-0.276,-0.2755,-0.2801,-0.2802,-0.2802,-0.2802,0,-0.2137,-0.2211,-0.2266,-0.2372,-0.24,-0.2429,-0.2531,-0.2571,-0.2661,-0.2711,-0.273,-0.2817,-0.2811,-0.2818,-0.2803,-0.2756,-0.2713,-0.2669,-0.2448,-0.2402,-0.2587,-0.2586,-0.2553,-0.2549,-0.2546,-0.2544,-0.2542,0,-0.2108,-0.2131,-0.2228,-0.2249,-0.2293,-0.2353,-0.2394,-0.2515,-0.256,-0.2685,-0.2697,-0.2737,-0.2718,-0.2673,-0.2599,-0.2527,-0.2622,-0.2298,-0.2265,-0.2578,-0.2563,-0.2566,-0.2569,-0.202,-0.2013,-0.2008,-0.2004,0,-0.2034,-0.2066,-0.2107,-0.215,-0.2192,-0.224,-0.231,-0.2339,-0.2474,-0.2518,-0.2562,-0.2563,-0.2534,-0.2366,-0.2289,-0.2226,-0.2298,-0.2192,-0.257,-0.212,-0.2074,-0.206,-0.208,-0.1959,-0.1964,-0.1967,-0.1969,-0.1971,-0.1952,-0.1954,-0.1999,-0.2026,-0.2071,-0.2091,-0.2077,-0.2161,-0.2192,-0.222,-0.2334,-0.2264,-0.2258,-0.2024,-0.1921,-0.1842,-0.2006,-0.1917,-0.1934,-0.1955,-0.1901,-0.1853,-0.1686,-0.1688,-0.1691,-0.1693,-0.1695,0,-0.1838,-0.1853,-0.1871,-0.1894,-0.1878,-0.195,-0.1988,-0.1945,-0.1912,-0.1967,-0.196,-0.1764,-0.1648,-0.1655,-0.1454,-0.1419,-0.141,-0.1366,-0.1352,-0.1397,-0.1437,-0.1359,-0.0998,-0.0996,-0.0994,-0.0993,0,0,-0.1777,-0.1747,-0.1757,-0.1682,-0.1693,-0.1619,-0.16,-0.1557,-0.1551,-0.147,-0.1435,-0.1552,-0.1595,-0.13,-0.1228,-0.108,-0.1228,-0.102,-0.1576,-0.1603,-0.1641,-0.1746,-0.1673,0,0,0,0,0]},{"header":{"parameterUnit":"m.s-1","parameterCategory":2,"la1":30.2991,"la2":30.254,"lo1":-89.0895,"lo2":-89.0444,"dy":0.0017,"dx":0.0017,"nx":28,"ny":28,"refTime":"2025-05-28T21:00:00:Z","depth":"2","parameterNumber":3,"parameterNumberName":"V-component_of_CURRENTS"},"data":[0,0,0,0,0,0,0,0,0,0,0,0,0,0,0,0,0,0,0,0,0,0,0,0,0,0,0,0,0,0,0,0,0,0,0,0,0,0,0,0,0,0,0,0,0,0,0,0,0,0,0,0,0,0,0,0,0,0,-0.0152,-0.0151,0,-0.0066,-0.0065,-0.0064,-0.0003,-0.0002,-0.0002,-0.0001,0.0114,0.0117,0.0119,0,0,0,0,0,0,0,0,0,0,0,0,0,-0.0209,-0.0208,-0.0152,-0.0151,-0.015,-0.0067,-0.0065,-0.0064,-0.0003,-0.0002,-0.0002,-0.0001,0.0113,0.0116,0.012,0,0,0,0,0,0,0,0,0,0,0,0,0,-0.0159,-0.0208,-0.0152,-0.011,-0.0106,-0.0067,-0.0065,-0.0064,-0.0003,-0.0002,-0.0002,-0.0001,0.0112,0.0116,0.012,0.0134,0,0,0.0133,0.0134,0,0,0,0,0,0,0,0,-0.0162,-0.0156,-0.0117,-0.0113,-0.0108,-0.0046,-0.0043,0.0004,-0.0003,-0.004,-0.0001,-0.0001,0.0062,0.007,0.0087,0.0139,0.0144,0.0133,0.0135,0.0137,0.0138,0,0,0,0,0,0,0,-0.0165,-0.0159,-0.0116,-0.0117,-0.0111,-0.0078,-0.0071,-0.0034,0.0008,-0.0037,-0.0033,-0.0026,0.0065,0.0083,0.009,0.0146,0.0133,0.0136,0.0139,0.0141,0.023,0.0229,0,0,0,0,0,0,-0.0182,-0.0163,-0.0119,-0.0114,-0.0136,-0.0078,-0.0069,-0.0065,0.0007,0.0018,-0.0026,-0.0023,0.0075,0.0085,0.0094,0.0115,0.0137,0.0141,0.0143,0.023,0.023,0.0229,0,0,0,0,0,0,-0.0184,-0.0179,-0.0123,-0.0138,-0.0128,-0.0078,-0.0073,-0.0064,-0.0046,0.0015,0.0027,-0.0019,0.0076,0.0088,0.0124,0.012,0.0143,0.0146,0.023,0.023,0.023,0.0156,0,0,0,0,0,0,-0.0186,-0.018,-0.0186,-0.0139,-0.0128,-0.011,-0.0074,-0.0063,-0.0043,-0.0038,0.0025,0.0037,0.0078,0.0118,0.0128,0.0126,0.015,0.023,0.023,0.023,0.0159,0.0153,0.0149,0,0,0,0,0,-0.0188,-0.0202,-0.0186,-0.0181,-0.0136,-0.011,-0.0102,-0.0063,-0.0044,-0.0043,0.0003,0.0035,0.0125,0.0121,0.0133,0.0132,0.023,0.023,0.023,0.0161,0.0154,0.0149,0,0,0,0,0,0,-0.0231,-0.0196,-0.0178,-0.0181,-0.0152,-0.0101,-0.0098,-0.0069,-0.0032,-0.0026,0.0034,0.0048,0.0078,0.0114,0.0109,0.0158,0.0183,0.0185,0.0126,0.0121,0.0116,0.0101,0.0153,0,0,0,0,0,-0.0244,-0.0244,-0.0203,-0.0205,-0.0195,-0.0147,-0.0132,-0.0105,-0.0066,-0.0048,-0.0003,0.0046,0.0086,0.011,0.015,0.0175,0.0218,0.0183,0.0178,0.0174,0.0171,0.0229,0.023,0.0229,0.0229,0.0229,0,0,-0.026,-0.0242,-0.0242,-0.0214,-0.0188,-0.0183,-0.0136,-0.0121,-0.0111,-0.0042,-0.0018,0.0029,0.0089,0.0118,0.0135,0.0148,0.0196,0.0174,0.0169,0.0169,0.0229,0.0229,0.0229,0.0229,0.0229,0.0229,0,0,-0.03,-0.0279,-0.0293,-0.0275,-0.0245,-0.0213,-0.0213,-0.0166,-0.0141,-0.0112,-0.0059,-0.0016,0.0042,0.0088,0.0118,0.0111,0.0167,0.0123,0.009,0.0146,0.0147,0.0148,0.0197,0.0203,0.0123,0.0122,0.0122,0,-0.0323,-0.0333,-0.0294,-0.0302,-0.0295,-0.0234,-0.0246,-0.0211,-0.0158,-0.0137,-0.0117,-0.002,0.0029,0.0075,0.0074,0.01,0.0139,0.0104,0.0139,0.0141,0.0143,0.0194,0.0202,0.0119,0.0119,0.012,0.012,0,-0.037,-0.0377,-0.0385,-0.0374,-0.036,-0.0361,-0.0311,-0.0289,-0.025,-0.0208,-0.0156,-0.0084,-0.0025,-0.0002,0.0035,0.0075,0.0099,0.0123,0.015,0.0139,0.0193,0.0202,0.0114,0.0115,0.0116,0.0117,0,0,-0.0424,-0.0421,-0.0423,-0.0434,-0.0399,-0.0395,-0.0376,-0.034,-0.0324,-0.0261,-0.0233,-0.0155,-0.0107,-0.0069,-0.0011,0.004,0.0089,0.0081,0.0086,0.0123,0.0211,0.0246,0.0259,0.012,0.0121,0.0122,0.0241,0,-0.0472,-0.0515,-0.0491,-0.0521,-0.0539,-0.0481,-0.0471,-0.0427,-0.0371,-0.0327,-0.0237,-0.0189,-0.0134,-0.0105,-0.0045,0.0059,0.0111,0.0055,0.0224,0.0228,0.0254,0.027,0.0245,0.035,0.025,0.0252,0.0253,0,-0.0526,-0.0549,-0.0595,-0.0602,-0.0602,-0.0605,-0.0572,-0.0553,-0.0467,-0.0422,-0.0347,-0.027,-0.0179,-0.0135,0.0034,-0.0005,0.0092,0.0172,0.0179,0.0243,0.028,0.0348,0.0372,0.0269,0.0268,0.0267,0.0266,0,-0.0593,-0.0619,-0.0662,-0.0665,-0.0659,-0.0662,-0.0649,-0.0584,-0.0567,-0.0477,-0.0447,-0.0324,-0.026,-0.0123,0.005,0.0043,0.0237,0.0251,0.0374,0.0377,0.0406,0.041,0.0365,0.0365,0.0364,0.0364,0.0364,0,-0.0658,-0.069,-0.0699,-0.0724,-0.0768,-0.0733,-0.0749,-0.071,-0.0651,-0.0632,-0.0503,-0.0449,-0.0254,-0.0113,0.0036,0.024,0.0233,0.0374,0.0415,0.038,0.038,0.0348,0.0345,0.0369,0.0368,0.0367,0.0366,0,-0.0724,-0.0729,-0.0781,-0.0796,-0.0804,-0.0833,-0.083,-0.0833,-0.0763,-0.0731,-0.0706,-0.0537,-0.0345,-0.0141,0.0094,0.0222,0.0411,0.0481,0.0425,0.0456,0.0513,0.0505,0.0627,0.0629,0.0631,0.0632,0.0634,0,-0.0763,-0.0798,-0.0845,-0.0883,-0.0893,-0.0926,-0.0946,-0.0898,-0.0892,-0.0778,-0.0766,-0.0575,-0.0419,-0.0055,0.0201,0.0476,0.0473,0.0599,0.0584,0.0515,0.0542,0.0531,0.052,0.0594,0.0594,0.0595,0.0596,0,-0.0834,-0.0847,-0.0889,-0.097,-0.101,-0.1051,-0.1069,-0.1083,-0.1014,-0.0952,-0.0828,-0.0689,-0.0334,-0.0021,0.0329,0.0485,0.0554,0.0624,0.0586,0.0525,0.0493,0.0516,0.0505,0.0603,0.0602,0.0601,0.0601,0.0601,-0.0877,-0.0926,-0.0981,-0.1052,-0.1105,-0.1155,-0.1179,-0.1166,-0.1136,-0.1017,-0.0884,-0.0633,-0.0338,0.0179,0.0423,0.065,0.0644,0.0703,0.0697,0.0692,0.0661,0.0633,0.0763,0.0763,0.0763,0.0764,0.0764,0,-0.093,-0.0981,-0.106,-0.1138,-0.1201,-0.1207,-0.1242,-0.1223,-0.1172,-0.1017,-0.0852,-0.0501,-0.0139,0.0171,0.0537,0.0747,0.0725,0.0777,0.0705,0.0698,0.0692,0.0657,0.0761,0.0762,0.0762,0.0763,0,0,-0.0959,-0.104,-0.1079,-0.1192,-0.1246,-0.1294,-0.1306,-0.1245,-0.113,-0.0957,-0.0757,-0.0492,-0.0113,0.0142,0.0408,0.0598,0.059,0.0614,0.0596,0.0474,0.0465,0.0634,0.0572,0,0,0,0,0]}],[{"header":{"parameterUnit":"m.s-1","parameterCategory":2,"la1":30.2991,"la2":30.254,"lo1":-89.0895,"lo2":-89.0444,"dy":0.0017,"dx":0.0017,"nx":28,"ny":28,"refTime":"2025-05-28T21:00:00:Z","depth":"4","parameterNumber":2,"parameterNumberName":"U-component_of_CURRENTS"},"data":[0,0,0,0,0,0,0,0,0,0,0,0,0,0,0,0,0,0,0,0,0,0,0,0,0,0,0,0,0,0,0,0,0,0,0,0,0,0,0,0,0,0,0,0,0,0,0,0,0,0,0,0,0,0,0,0,0,0,-0.1719,-0.172,0,-0.1798,-0.1799,-0.1799,-0.1841,-0.1842,-0.1842,-0.1842,-0.1915,-0.1917,-0.1918,0,0,0,0,0,0,0,0,0,0,0,0,0,-0.1607,-0.1608,-0.1719,-0.172,-0.1721,-0.1798,-0.1799,-0.18,-0.1841,-0.1842,-0.1842,-0.1842,-0.1914,-0.1916,-0.1919,0,0,0,0,0,0,0,0,0,0,0,0,0,-0.1666,-0.1609,-0.1718,-0.1752,-0.1756,-0.1798,-0.1799,-0.18,-0.1841,-0.1842,-0.1842,-0.1842,-0.1914,-0.1916,-0.1919,-0.1929,0,0,-0.1927,-0.1928,0,0,0,0,0,0,0,0,-0.1663,-0.167,-0.1746,-0.175,-0.1754,-0.1811,-0.1786,-0.1843,-0.1841,-0.1807,-0.1842,-0.1842,-0.1881,-0.1886,-0.1898,-0.1932,-0.1935,-0.1927,-0.1929,-0.193,-0.1931,0,0,0,0,0,0,0,-0.1658,-0.1667,-0.1748,-0.1747,-0.1752,-0.1765,-0.1773,-0.1797,-0.184,-0.181,-0.1814,-0.1825,-0.1883,-0.1895,-0.19,-0.1936,-0.1927,-0.1929,-0.1931,-0.1932,-0.2059,-0.2061,0,0,0,0,0,0,-0.1652,-0.1663,-0.1746,-0.1751,-0.171,-0.1766,-0.1776,-0.1791,-0.184,-0.1848,-0.1825,-0.1827,-0.1891,-0.1897,-0.1903,-0.1992,-0.193,-0.1932,-0.1934,-0.2057,-0.206,-0.2062,0,0,0,0,0,0,-0.1649,-0.1658,-0.1743,-0.171,-0.1721,-0.1768,-0.1785,-0.1793,-0.1834,-0.1851,-0.1859,-0.1861,-0.1891,-0.1899,-0.1954,-0.1992,-0.1933,-0.1936,-0.2055,-0.2058,-0.2061,-0.2122,0,0,0,0,0,0,-0.1645,-0.1657,-0.1679,-0.1709,-0.1723,-0.1788,-0.1785,-0.1794,-0.1839,-0.1843,-0.1884,-0.189,-0.1892,-0.195,-0.1957,-0.1995,-0.1938,-0.2053,-0.2057,-0.206,-0.2118,-0.2127,-0.2134,0,0,0,0,0,-0.1641,-0.1666,-0.168,-0.169,-0.1748,-0.179,-0.1798,-0.183,-0.1841,-0.1867,-0.1898,-0.189,-0.1976,-0.1954,-0.1961,-0.2001,-0.2051,-0.2056,-0.206,-0.2114,-0.2125,-0.2134,0,0,0,0,0,0,-0.1632,-0.1674,-0.1689,-0.1727,-0.1766,-0.1798,-0.1828,-0.1848,-0.1893,-0.1904,-0.1915,-0.1924,-0.1985,-0.1986,-0.1961,-0.2048,-0.2012,-0.2018,-0.2051,-0.2062,-0.207,-0.206,-0.194,0,0,0,0,0,-0.1639,-0.167,-0.1709,-0.1743,-0.1764,-0.1801,-0.1827,-0.1852,-0.1888,-0.191,-0.194,-0.1971,-0.2003,-0.2027,-0.2053,-0.2103,-0.2085,-0.2132,-0.2141,-0.2148,-0.2145,-0.2156,-0.2164,-0.2075,-0.2075,-0.2075,0,0,-0.1645,-0.1673,-0.1692,-0.1744,-0.1775,-0.1817,-0.1818,-0.1869,-0.1912,-0.191,-0.1984,-0.2004,-0.2023,-0.2079,-0.2106,-0.2088,-0.2164,-0.2153,-0.2158,-0.2152,-0.2161,-0.217,-0.2177,-0.2078,-0.2077,-0.2077,0,0,-0.1664,-0.1698,-0.1729,-0.1766,-0.1821,-0.1847,-0.1868,-0.1921,-0.1956,-0.2021,-0.2031,-0.2076,-0.213,-0.215,-0.2165,-0.2235,-0.2207,-0.2248,-0.2284,-0.2296,-0.2303,-0.2308,-0.2293,-0.2297,-0.2252,-0.2253,-0.2253,0,-0.1671,-0.1714,-0.1746,-0.1786,-0.1823,-0.1863,-0.1908,-0.195,-0.2018,-0.2049,-0.2056,-0.2141,-0.2162,-0.2218,-0.2244,-0.2254,-0.2243,-0.2244,-0.2305,-0.231,-0.2315,-0.2298,-0.2302,-0.2256,-0.2256,-0.2255,-0.2255,0,-0.1704,-0.1753,-0.1776,-0.184,-0.1884,-0.1932,-0.1988,-0.2043,-0.2087,-0.2122,-0.2198,-0.2228,-0.2272,-0.2293,-0.2292,-0.2345,-0.232,-0.2312,-0.2275,-0.2328,-0.2307,-0.2309,-0.2261,-0.226,-0.2259,-0.2258,0,0,-0.1678,-0.178,-0.1791,-0.1832,-0.1919,-0.1954,-0.2034,-0.2106,-0.2155,-0.2221,-0.2277,-0.2341,-0.2351,-0.2368,-0.2377,-0.2393,-0.2423,-0.2372,-0.237,-0.2348,-0.2429,-0.2262,-0.2248,-0.2425,-0.2426,-0.2427,-0.2399,0,-0.1696,-0.1775,-0.1826,-0.1911,-0.1955,-0.2024,-0.209,-0.2162,-0.2222,-0.2286,-0.2326,-0.2381,-0.2382,-0.2406,-0.2426,-0.2428,-0.2433,-0.243,-0.2389,-0.2387,-0.2225,-0.2247,-0.243,-0.2401,-0.2401,-0.2401,-0.2402,0,-0.1701,-0.1758,-0.1841,-0.1946,-0.1972,-0.2033,-0.2137,-0.2202,-0.2294,-0.2338,-0.2396,-0.2423,-0.2473,-0.2457,-0.248,-0.2478,-0.2458,-0.2449,-0.2447,-0.2267,-0.2224,-0.2339,-0.2406,-0.2405,-0.2405,-0.2405,-0.2405,0,-0.1648,-0.1763,-0.1831,-0.1869,-0.1993,-0.2049,-0.2118,-0.2219,-0.2271,-0.2367,-0.2402,-0.2465,-0.2491,-0.2497,-0.2483,-0.2489,-0.248,-0.2483,-0.231,-0.2297,-0.243,-0.2424,-0.2483,-0.2483,-0.2483,-0.2483,-0.2483,0,-0.1627,-0.1685,-0.1817,-0.1854,-0.1932,-0.2031,-0.2113,-0.2189,-0.2287,-0.2329,-0.2418,-0.2439,-0.2502,-0.2504,-0.2491,-0.2391,-0.2484,-0.2305,-0.2277,-0.2457,-0.2454,-0.2431,-0.2425,-0.2482,-0.2482,-0.2483,-0.2483,0,-0.1553,-0.1646,-0.1726,-0.1865,-0.1909,-0.1964,-0.2095,-0.2144,-0.2252,-0.2307,-0.2335,-0.2425,-0.2419,-0.2445,-0.2443,-0.237,-0.2316,-0.2255,-0.2429,-0.2413,-0.2126,-0.2125,-0.2062,-0.2056,-0.205,-0.2046,-0.2042,0,-0.1519,-0.1556,-0.1706,-0.1748,-0.1815,-0.1911,-0.1967,-0.2104,-0.2144,-0.2268,-0.2269,-0.2317,-0.2349,-0.22,-0.2258,-0.2199,-0.2174,-0.2132,-0.2142,-0.2103,-0.2083,-0.209,-0.2095,-0.2034,-0.2033,-0.2031,-0.203,0,-0.1443,-0.151,-0.1573,-0.1656,-0.173,-0.1795,-0.1885,-0.1896,-0.2031,-0.2155,-0.2126,-0.2113,-0.2093,-0.208,-0.2035,-0.2004,-0.2158,-0.2077,-0.2088,-0.2098,-0.2068,-0.2055,-0.2067,-0.2012,-0.2014,-0.2016,-0.2017,0,-0.1378,-0.1398,-0.1482,-0.1538,-0.1621,-0.1639,-0.171,-0.1744,-0.1797,-0.1939,-0.1921,-0.1975,-0.2061,-0.1976,-0.1945,-0.1889,-0.1868,-0.1812,-0.1837,-0.1858,-0.1804,-0.1738,-0.1543,0,0,0,0,0,-0.1302,-0.1308,-0.1353,-0.1406,-0.1479,-0.152,-0.1632,-0.1705,-0.1835,-0.1759,-0.1832,-0.1804,-0.1756,-0.1795,-0.1691,-0.186,-0.188,-0.1733,-0.183,-0.1911,-0.1932,-0.1888,0,0,0,0,0,0,-0.1251,-0.129,-0.1304,-0.127,-0.1276,-0.1337,-0.1396,-0.1493,-0.1459,-0.1597,-0.1575,-0.1685,-0.1662,-0.1773,-0.1648,-0.1658,-0.1679,-0.1782,-0.1777,-0.1899,-0.1918,-0.1935,-0.1897,0,0,0,0,0]},{"header":{"parameterUnit":"m.s-1","parameterCategory":2,"la1":30.2991,"la2":30.254,"lo1":-89.0895,"lo2":-89.0444,"dy":0.0017,"dx":0.0017,"nx":28,"ny":28,"refTime":"2025-05-28T21:00:00:Z","depth":"4","parameterNumber":3,"parameterNumberName":"V-component_of_CURRENTS"},"data":[0,0,0,0,0,0,0,0,0,0,0,0,0,0,0,0,0,0,0,0,0,0,0,0,0,0,0,0,0,0,0,0,0,0,0,0,0,0,0,0,0,0,0,0,0,0,0,0,0,0,0,0,0,0,0,0,0,0,-0.0118,-0.0118,0,-0.0059,-0.0058,-0.0057,-0.0009,-0.0009,-0.0009,-0.0008,0.0087,0.0089,0.0091,0,0,0,0,0,0,0,0,0,0,0,0,0,-0.0151,-0.0151,-0.0118,-0.0118,-0.0117,-0.0059,-0.0058,-0.0057,-0.0009,-0.0009,-0.0009,-0.0008,0.0086,0.0089,0.0091,0,0,0,0,0,0,0,0,0,0,0,0,0,-0.0118,-0.0151,-0.0119,-0.0088,-0.0084,-0.0059,-0.0058,-0.0057,-0.0009,-0.0009,-0.0009,-0.0008,0.0085,0.0088,0.0092,0.0102,0,0,0.0102,0.0103,0,0,0,0,0,0,0,0,-0.012,-0.0116,-0.0093,-0.009,-0.0086,-0.0042,-0.0035,-0.0002,-0.001,-0.0036,-0.0008,-0.0008,0.0046,0.0052,0.0064,0.0107,0.0111,0.0102,0.0104,0.0106,0.0107,0,0,0,0,0,0,0,-0.0122,-0.0118,-0.0093,-0.0092,-0.0088,-0.0063,-0.0058,-0.0028,0.0003,-0.0034,-0.0031,-0.0027,0.0048,0.0061,0.0067,0.0112,0.0102,0.0105,0.0107,0.0109,0.0184,0.0184,0,0,0,0,0,0,-0.0135,-0.0121,-0.0095,-0.0091,-0.0104,-0.0063,-0.0057,-0.0056,0.0002,0.0011,-0.0027,-0.0025,0.0055,0.0063,0.007,0.0089,0.0106,0.0109,0.0111,0.0184,0.0184,0.0184,0,0,0,0,0,0,-0.0136,-0.0134,-0.0097,-0.0106,-0.01,-0.0064,-0.0062,-0.0055,-0.0042,0.0006,0.0016,-0.0022,0.0055,0.0066,0.0095,0.0093,0.011,0.0113,0.0184,0.0184,0.0184,0.0124,0,0,0,0,0,0,-0.0138,-0.0134,-0.014,-0.0107,-0.01,-0.009,-0.0062,-0.0054,-0.0041,-0.0037,0.0014,0.0023,0.0057,0.0089,0.0098,0.0098,0.0116,0.0184,0.0184,0.0184,0.0126,0.0122,0.0119,0,0,0,0,0,-0.0139,-0.0152,-0.0141,-0.0138,-0.0108,-0.0091,-0.0085,-0.0056,-0.0042,-0.0042,-0.0004,0.0022,0.0096,0.0092,0.0102,0.0103,0.0184,0.0184,0.0184,0.0128,0.0123,0.0119,0,0,0,0,0,0,-0.017,-0.0147,-0.0135,-0.014,-0.012,-0.0084,-0.0084,-0.0062,-0.0033,-0.0028,0.002,0.0032,0.0057,0.0088,0.0082,0.0125,0.0145,0.0147,0.0099,0.0095,0.0091,0.0078,0.0119,0,0,0,0,0,-0.018,-0.0183,-0.0155,-0.016,-0.0153,-0.0119,-0.0109,-0.0089,-0.0059,-0.0046,-0.001,0.0031,0.0065,0.0085,0.0117,0.0139,0.0174,0.0147,0.0143,0.014,0.0137,0.019,0.0191,0.0183,0.0183,0.0183,0,0,-0.0194,-0.0182,-0.0184,-0.0167,-0.0149,-0.0146,-0.0112,-0.0102,-0.0095,-0.004,-0.0022,0.0017,0.0067,0.0092,0.0106,0.0117,0.016,0.014,0.0137,0.0136,0.019,0.0191,0.0191,0.0183,0.0183,0.0183,0,0,-0.0225,-0.0213,-0.0225,-0.0213,-0.0194,-0.0172,-0.0172,-0.0138,-0.0119,-0.0098,-0.0054,-0.0018,0.0029,0.0068,0.0094,0.009,0.0136,0.01,0.0074,0.0125,0.0126,0.0127,0.0166,0.0171,0.0101,0.0101,0.01,0,-0.0243,-0.0253,-0.0226,-0.0234,-0.0231,-0.0187,-0.0198,-0.0172,-0.0132,-0.0117,-0.0101,-0.0021,0.0019,0.0061,0.006,0.0082,0.0114,0.0085,0.012,0.0122,0.0124,0.0163,0.017,0.0098,0.0098,0.0098,0.0099,0,-0.0279,-0.0287,-0.0294,-0.0289,-0.0281,-0.0284,-0.0249,-0.0233,-0.0204,-0.0172,-0.013,-0.0071,-0.0022,-0.0002,0.0028,0.0065,0.0083,0.0106,0.0128,0.0121,0.0163,0.0171,0.0094,0.0095,0.0096,0.0096,0,0,-0.0317,-0.0321,-0.0324,-0.0334,-0.0312,-0.0311,-0.0298,-0.0272,-0.0262,-0.0212,-0.0192,-0.0125,-0.0087,-0.0055,-0.0006,0.004,0.0083,0.0074,0.0078,0.0105,0.0188,0.0175,0.0183,0.0112,0.0113,0.0114,0.0207,0,-0.0354,-0.0389,-0.0374,-0.0402,-0.0417,-0.0377,-0.0372,-0.034,-0.0299,-0.0267,-0.0192,-0.0155,-0.0107,-0.0085,-0.003,0.0056,0.0102,0.0055,0.0196,0.02,0.0185,0.0191,0.0118,0.0214,0.0215,0.0217,0.0218,0,-0.0392,-0.0412,-0.0453,-0.0464,-0.0467,-0.0474,-0.0456,-0.0443,-0.0379,-0.0346,-0.0285,-0.0223,-0.0145,-0.0108,0.0038,0.0006,0.0088,0.0155,0.0161,0.0176,0.0202,0.0226,0.0233,0.0232,0.023,0.0229,0.0229,0,-0.0438,-0.0465,-0.0503,-0.0507,-0.0511,-0.052,-0.0517,-0.0471,-0.0461,-0.0393,-0.0372,-0.0267,-0.0217,-0.0097,0.0047,0.0044,0.0206,0.0223,0.029,0.029,0.0299,0.0297,0.0322,0.0322,0.0322,0.0321,0.0321,0,-0.0479,-0.051,-0.0532,-0.0554,-0.0599,-0.0578,-0.0601,-0.0574,-0.0535,-0.0523,-0.042,-0.0378,-0.0212,-0.0096,0.0033,0.0185,0.0201,0.0285,0.0315,0.0271,0.0265,0.0304,0.0301,0.0325,0.0324,0.0324,0.0323,0,-0.0518,-0.0532,-0.0582,-0.061,-0.0624,-0.0655,-0.0672,-0.0678,-0.0631,-0.061,-0.0592,-0.0457,-0.0302,-0.0132,0.0068,0.0159,0.031,0.036,0.0293,0.0317,0.0361,0.0354,0.0437,0.0437,0.0438,0.0438,0.0438,0,-0.0539,-0.0571,-0.0633,-0.0673,-0.0691,-0.0733,-0.0759,-0.0733,-0.0729,-0.0652,-0.0639,-0.0495,-0.0388,-0.0109,0.0064,0.0303,0.0336,0.0401,0.0386,0.0353,0.0375,0.0367,0.0359,0.0439,0.0439,0.0439,0.0439,0,-0.058,-0.0606,-0.0647,-0.0732,-0.078,-0.0825,-0.0853,-0.0859,-0.0815,-0.0779,-0.0659,-0.0504,-0.0332,-0.0112,0.0073,0.0245,0.0351,0.0405,0.0405,0.0392,0.0357,0.0375,0.0368,0.044,0.044,0.044,0.044,0,-0.0608,-0.065,-0.071,-0.0777,-0.0846,-0.0889,-0.0902,-0.0877,-0.0859,-0.0761,-0.0724,-0.0517,-0.0395,-0.0141,0.0032,0.0196,0.0233,0.0272,0.028,0.0281,0.0206,0.0136,0.0178,0,0,0,0,0,-0.0628,-0.0677,-0.075,-0.0819,-0.0887,-0.0918,-0.0948,-0.0942,-0.0905,-0.0826,-0.0768,-0.0595,-0.032,-0.0192,-0.0029,0.002,0.0242,0.0212,0.0286,0.0446,0.0445,0.0382,0,0,0,0,0,0,-0.0645,-0.0716,-0.075,-0.0835,-0.0886,-0.0946,-0.0966,-0.0943,-0.0882,-0.0822,-0.0665,-0.0572,-0.0297,-0.0408,-0.0028,0.0021,0.0085,0.0349,0.0352,0.0447,0.0446,0.0445,0.038,0,0,0,0,0]}]]